Location: Hains Lake
(37.8540°N, 99.8578°W)
Time: 09:57:22
(UTC+00:00)

Tiros 1 despin weight - Pass Details

Date: 21 April 2021
Orbit: 593 x 642 km, 48.2° (Epoch: 07 May)

Event Time Altitude Azimuth Distance (km) Brightness Sun altitude
Rises 15:31:55 0° 304° (NW) 2,880 ? 41.3°
Reaches altitude 10° 15:34:29 10° 316° (NW) 1,965 ? 41.7°
Maximum altitude 15:38:27 30° 17° (NNE) 1,096 ? 42.5°
Drops below altitude 10° 15:42:23 10° 79° (E) 1,936 ? 43.2°
Sets 15:44:53 0° 91° (E) 2,831 ? 43.7°
